Flag for U.S.A. Weather past 2 weeks in Sarasota, Florida, U.S.A.

Now
86 °F

Thundershowers. Sunny.


Feels Like: 89 °F
Forecast: 77 / 90 °F
Wind: 5 mph from Northeast

Location: Sarasota-Bradenton International Airport

Current Time: Jul 1, 2015 at 1:57:10 PM

Latest Report: Jul 1, 2015 at 12:53 PM


Visibility: 10 mi

Pressure: 30.14 "Hg

Humidity: 53%

Dew point: 67 °F

Location of SarasotaLocation

Historic Weather in Sarasota — Graph

°F

Sarasota temperature yesterday

Maximum temperature yesterday: 90 °F (at 1:53 PM)
Minimum temperature yesterday: 80 °F (at 7:53 AM)
Average temperature yesterday: 85 °F

Past Weeks' High & Low Weather Summary

 TemperatureHumidityPressure
High93 °F (Jun 22, 2:53 PM)94% (Jun 17, 6:53 AM)30.15 "Hg (Jun 17, 6:53 AM)
Low72 °F (Jun 26, 4:53 AM)51% (Jun 17, 12:53 PM)29.98 "Hg (Jun 28, 4:53 AM)
Average83 °F73%30.08 "Hg
* Reported Jun 16 11:53 AM — Jul 1 11:53 AM, Sarasota, Weather by CustomWeather, © 2015

Note: Actual official high and low records may vary slightly from our data, if they occured in-between our weather recording intervals... More about our weather records

Advertising

Sarasota weather history for previous 24 hours

 ConditionsComfort  
Time TempWeatherWind HumidityBarometerVisibility
11:53 AM
Wed, Jul 1
86 °FThundershowers. Passing clouds.7 mph65%30.14 "Hg10 mi
10:53 AM89 °FSunny.7 mph57%30.14 "Hg10 mi
9:53 AM88 °FSunny.3 mph59%30.15 "Hg10 mi
8:53 AM84 °FSunny.3 mph72%30.14 "Hg10 mi
7:53 AM79 °FSunny.6 mph84%30.13 "Hg10 mi
6:53 AM76 °FClear.No wind91%30.12 "Hg10 mi
5:53 AM76 °FClear.5 mph94%30.11 "Hg10 mi
4:53 AM77 °FPassing clouds.5 mph90%30.11 "Hg10 mi
3:53 AM77 °FClear.3 mph90%30.11 "Hg10 mi
2:53 AM78 °FClear.7 mph90%30.10 "Hg10 mi
1:53 AM79 °FClear.6 mph88%30.09 "Hg10 mi
11:53 PM
Tue, Jun 30
82 °FClear.No wind79%30.12 "Hg10 mi
10:53 PM83 °FClear.No wind77%30.12 "Hg10 mi
9:53 PM82 °FClear.6 mph79%30.11 "Hg10 mi
8:53 PM83 °FSunny.6 mph74%30.09 "Hg10 mi
7:53 PM86 °FSunny.7 mph67%30.08 "Hg10 mi
6:53 PM87 °FSunny.10 mph65%30.08 "Hg10 mi
5:53 PM88 °FSunny.10 mph63%30.07 "Hg10 mi
4:53 PM89 °FSunny.10 mph59%30.08 "Hg10 mi
3:53 PM90 °FSunny.10 mph57%30.07 "Hg10 mi
2:53 PM89 °FSunny.12 mph59%30.08 "Hg10 mi
1:53 PM90 °FSunny.6 mph57%30.10 "Hg10 mi
Weather by CustomWeather, © 2015

See weather overviewHow to use our weather pages